Tampa, FL

9:05 PM EST on November 14, 2019 (GMT -0500)
Tampa International

Weather History for KTPA - October, 2019

Change the Weather History Date:

Sunday, October 20, 2019

  Actual Average Record
Temperature  
Mean Temperature 82 °F 75 °F  
Max Temperature 88 °F 84 °F 91 °F (1993)
Min Temperature 75 °F 67 °F 45 °F (1964)
Degree Days  
Heating Degree Days 0 0  
Month to date heating degree days 0 0  
Since 1 July heating degree days 0 0  
Cooling Degree Days 17 10  
Month to date cooling degree days 323 251  
Year to date cooling degree days 3820 3267  
Growing Degree Days 32 (Base 50)    
Moisture  
Dew Point 71 °F    
Average Humidity 76    
Maximum Humidity 91    
Minimum Humidity 61    
Precipitation  
Precipitation 0.00 in 0.06 in 1.52 in (1959)
Month to date precipitation 6.48 1.67  
Year to date precipitation 55.25 41.69  
Sea Level Pressure  
Sea Level Pressure 29.91 in    
Wind  
Wind Speed 7 mph (West)    
Max Wind Speed 12 mph    
Max Gust Speed 16 mph    
Visibility 10 miles    
Events      
T = Trace of Precipitation, MM = Missing Value Source: NWS Daily Summary

Daily Weather History Graph

Daily Weather History Graph

Search for Another Location

Airport or City:

Astronomy

Oct. 20, 2019 Rise Set
Actual Time 7:33 AM EDT 6:56 PM EDT
Civil Twilight 7:09 AM EDT 7:19 PM EDT
Nautical Twilight 6:42 AM EDT 7:47 PM EDT
Astronomical Twilight 6:14 AM EDT 8:14 PM EDT
Moon No Moon Rise 1:40 PM EDT (10/20)
Length of Visible Light 12h 10m
Length of Day
11h 22m
Waning Gibbous, 59% of the Moon is Illuminated
Oct 20
Waning Gibbous
Oct 21
Last Quarter
Oct 27
New
Nov 4
First Quarter
Nov 12
Full

Hourly Weather History & Observations

Time (EDT) Temp. Heat Index Dew Point Humidity Pressure Visibility Wind Dir Wind Speed Gust Speed Precip Events Conditions
12:53 AM 79.0 °F - 75.0 °F 88% 29.84 in 10.0 mi SW 6.9 mph - N/A   Mostly Cloudy
1:53 AM 79.0 °F - 73.9 °F 84% 29.85 in 10.0 mi WSW 9.2 mph - N/A   Mostly Cloudy
2:53 AM 78.1 °F - 73.0 °F 84% 29.84 in 10.0 mi SW 8.1 mph - N/A   Partly Cloudy
3:53 AM 78.1 °F - 73.0 °F 84% 29.83 in 10.0 mi SW 8.1 mph - N/A   Partly Cloudy
4:53 AM 78.1 °F - 72.0 °F 81% 29.83 in 10.0 mi SW 6.9 mph - N/A   Clear
5:53 AM 77.0 °F - 72.0 °F 84% 29.85 in 10.0 mi WSW 6.9 mph - N/A   Clear
6:53 AM 77.0 °F - 72.0 °F 84% 29.87 in 10.0 mi WSW 5.8 mph - N/A   Clear
7:53 AM 78.1 °F - 72.0 °F 81% 29.89 in 10.0 mi SW 5.8 mph - N/A   Scattered Clouds
8:53 AM 80.1 °F 84.2 °F 73.0 °F 79% 29.92 in 10.0 mi WSW 5.8 mph - N/A   Partly Cloudy
9:53 AM 81.0 °F 85.8 °F 73.0 °F 77% 29.95 in 10.0 mi SSW 5.8 mph - N/A   Partly Cloudy
10:53 AM 82.9 °F 88.8 °F 73.0 °F 72% 29.95 in 10.0 mi WSW 8.1 mph - N/A   Partly Cloudy
11:53 AM 84.9 °F 90.1 °F 71.1 °F 63% 29.95 in 10.0 mi West 8.1 mph - N/A   Scattered Clouds
12:53 PM 84.9 °F 90.7 °F 72.0 °F 65% 29.95 in 10.0 mi West 9.2 mph - N/A   Scattered Clouds
1:53 PM 86.0 °F 93.0 °F 73.0 °F 65% 29.94 in 10.0 mi West 10.4 mph - N/A   Scattered Clouds
2:53 PM 86.0 °F 92.2 °F 72.0 °F 63% 29.92 in 10.0 mi WNW 5.8 mph - N/A   Scattered Clouds
3:53 PM 86.0 °F 91.5 °F 71.1 °F 61% 29.92 in 10.0 mi NW 6.9 mph - N/A   Scattered Clouds
4:53 PM 86.0 °F 91.5 °F 71.1 °F 61% 29.92 in 10.0 mi NNW 8.1 mph - N/A   Partly Cloudy
5:53 PM 84.0 °F 88.4 °F 70.0 °F 63% 29.94 in 10.0 mi NNW 6.9 mph - N/A   Partly Cloudy
6:53 PM 80.1 °F 83.2 °F 70.0 °F 71% 29.93 in 10.0 mi NNW 5.8 mph - N/A   Partly Cloudy
7:53 PM 78.1 °F - 69.1 °F 74% 29.94 in 10.0 mi North 4.6 mph - N/A   Partly Cloudy
8:53 PM 75.9 °F - 68.0 °F 76% 29.96 in 10.0 mi North 5.8 mph - N/A   Clear
9:53 PM 75.9 °F - 68.0 °F 76% 29.97 in 10.0 mi North 4.6 mph - N/A   Scattered Clouds
10:53 PM 75.9 °F - 66.9 °F 74% 29.98 in 10.0 mi NNE 3.5 mph - N/A   Partly Cloudy
11:53 PM 75.0 °F - 68.0 °F 79% 29.98 in 10.0 mi North 3.5 mph - N/A   Scattered Clouds